Tracking 29892 objects as of 21-Nov-2024
HD Live streaming from Space Station
objects crossing your sky now

CZ-6A DEB

Track CZ-6A DEB now!
10-day predictions


NORAD ID: 55216
Int'l Code: 2022-151WH
Perigee: 667.9 km
Apogee: 800.9 km
Inclination: 98.6 °
Period: 99.3 minutes
Semi major axis: 7105 km
RCS: Unknown
Launch date: November 11, 2022
Source: People's Republic of China (PRC)
Launch site: Taiyaun Space Center, China (TSC)

Note: This is SATELLITE DEBRIS
Your satellite tracking list
Your tracking list is empty




NASA's NSSDC Master Catalog

Two Line Element Set (TLE):
1 55216U 22151WH  24324.98418118  .00016489  00000-0  40720-2 0  9998
2 55216  98.6453 347.8701 0093615 269.3231  89.7235 14.49503660100740
Source of the keplerian elements: AFSPC